[[{"header":{"parameterUnit":"m.s-1","parameterCategory":1,"la1":30.2991,"la2":30.254,"lo1":-89.0895,"lo2":-89.0444,"dy":0.0017,"dx":0.0017,"nx":28,"ny":28,"refTime":"2023-10-30T03:00:00:Z","depth":0,"parameterNumber":2,"parameterNumberName":"U-component_of_WINDS"},"data":[0,0,0,0,0,0,0,0,0,0,0,0,0,0,0,0,0,0,0,0,0,0,0,0,0,0,0,0,0,0,0,0,0,0,0,0,0,0,0,0,0,0,0,0,0,0,0,0,0,0,0,0,0,0,0,0,0,0,1.8051,1.8051,0,1.7996,1.7995,1.7994,1.7948,1.7947,1.7947,1.7946,1.7886,1.7885,1.7884,0,0,0,0,0,0,0,0,0,0,0,0,0,1.8115,1.8114,1.8051,1.8051,1.805,1.7996,1.7995,1.7994,1.7948,1.7947,1.7947,1.7946,1.7887,1.7885,1.7884,0,0,0,0,0,0,0,0,0,0,0,0,0,1.8076,1.8113,1.8052,1.802,1.8017,1.7996,1.7995,1.7994,1.7948,1.7947,1.7946,1.7946,1.7887,1.7885,1.7884,1.7888,0,0,1.7879,1.7878,0,0,0,0,0,0,0,0,1.8078,1.8074,1.8026,1.8022,1.8019,1.7978,1.7995,1.7958,1.7948,1.7974,1.7946,1.7945,1.7917,1.7913,1.7904,1.7885,1.7883,1.7878,1.7877,1.7877,1.7876,0,0,0,0,0,0,0,1.8081,1.8076,1.8029,1.8025,1.8021,1.8008,1.8002,1.7988,1.795,1.7972,1.7968,1.7962,1.7915,1.7906,1.7902,1.7882,1.7878,1.7877,1.7876,1.7875,1.7862,1.7863,0,0,0,0,0,0,1.8089,1.8078,1.8031,1.8028,1.8047,1.8008,1.8001,1.7992,1.795,1.7943,1.7963,1.796,1.7909,1.7904,1.79,1.7901,1.7877,1.7875,1.7874,1.7862,1.7863,1.7863,0,0,0,0,0,0,1.809,1.8085,1.8033,1.8052,1.8044,1.8007,1.7998,1.7991,1.7982,1.7944,1.7937,1.7961,1.7908,1.7902,1.7891,1.7899,1.7874,1.7873,1.7861,1.7862,1.7863,1.7905,0,0,0,0,0,0,1.8092,1.8086,1.8088,1.8052,1.8044,1.8027,1.7998,1.799,1.7979,1.7975,1.794,1.7933,1.7907,1.7894,1.789,1.7896,1.7871,1.786,1.7861,1.7863,1.7903,1.7907,1.7911,0,0,0,0,0,1.8095,1.8102,1.8088,1.8083,1.8046,1.8027,1.8022,1.7993,1.798,1.7981,1.7957,1.7934,1.7899,1.7893,1.7888,1.7894,1.7859,1.7861,1.7863,1.7901,1.7907,1.7911,0,0,0,0,0,0,1.8138,1.8096,1.8081,1.8077,1.8056,1.8019,1.802,1.8,1.7982,1.7978,1.7942,1.7935,1.7927,1.7909,1.7904,1.7895,1.7876,1.7877,1.7907,1.7912,1.7916,1.792,1.787,0,0,0,0,0,1.8148,1.8137,1.8101,1.81,1.8091,1.8057,1.8048,1.8028,1.8004,1.7995,1.797,1.7947,1.793,1.792,1.7903,1.79,1.7891,1.7901,1.7906,1.7909,1.791,1.7906,1.791,1.7868,1.7868,1.7868,0,0,1.8166,1.8142,1.8138,1.8109,1.809,1.8079,1.805,1.804,1.8031,1.7993,1.7981,1.7962,1.7934,1.7927,1.7922,1.7911,1.7919,1.7911,1.7915,1.7913,1.7908,1.7912,1.7915,1.7869,1.7869,1.7869,0,0,1.8194,1.8176,1.8173,1.8155,1.8128,1.8105,1.8105,1.8071,1.8057,1.8044,1.8015,1.8004,1.7977,1.7957,1.7944,1.7965,1.7943,1.796,1.7982,1.7978,1.7982,1.7984,1.7991,1.7993,1.7961,1.7961,1.7961,0,1.8221,1.8204,1.8174,1.8165,1.8153,1.8119,1.8115,1.8099,1.8067,1.8058,1.8047,1.8012,1.7991,1.7978,1.7983,1.7974,1.7971,1.7964,1.7984,1.7986,1.7988,1.7994,1.7996,1.7963,1.7963,1.7963,1.7963,0,1.8237,1.8226,1.8227,1.8198,1.8185,1.8179,1.8147,1.8138,1.8119,1.8097,1.8084,1.8058,1.8034,1.803,1.801,1.8014,1.8008,1.7991,1.7971,1.7995,1.7999,1.8001,1.7967,1.7966,1.7965,1.7965,0,0,1.8291,1.8246,1.8246,1.8232,1.8199,1.8189,1.8181,1.8159,1.8151,1.813,1.8121,1.8099,1.8083,1.8068,1.8046,1.8043,1.8059,1.8026,1.8024,1.8032,1.806,1.8073,1.8076,1.8045,1.8045,1.8045,1.8062,0,1.8314,1.8298,1.8271,1.8263,1.8252,1.8219,1.8212,1.819,1.8169,1.8156,1.8132,1.8117,1.8097,1.8088,1.8083,1.8058,1.8064,1.8057,1.8035,1.8035,1.8042,1.8078,1.8091,1.8109,1.8064,1.8064,1.8064,0,1.8338,1.8319,1.8311,1.8278,1.8272,1.8266,1.8243,1.8231,1.8205,1.819,1.8173,1.8149,1.8138,1.812,1.8102,1.8098,1.8087,1.8074,1.8073,1.807,1.8051,1.8074,1.8113,1.8116,1.8067,1.8067,1.8067,0,1.8377,1.835,1.8341,1.833,1.8292,1.8288,1.8272,1.8245,1.8233,1.8213,1.8204,1.8183,1.817,1.8153,1.8124,1.8114,1.8109,1.8089,1.8095,1.8096,1.8095,1.8095,1.8132,1.809,1.809,1.809,1.809,0,1.8404,1.84,1.8358,1.8353,1.8347,1.8315,1.831,1.829,1.8267,1.8256,1.8226,1.8216,1.8178,1.8163,1.814,1.8128,1.8123,1.811,1.8103,1.8112,1.8114,1.8104,1.8102,1.809,1.809,1.809,1.809,0,1.8447,1.8419,1.8407,1.8372,1.8363,1.836,1.8329,1.8322,1.8299,1.8286,1.8281,1.8246,1.8227,1.8196,1.8168,1.8152,1.8144,1.8134,1.8153,1.8149,1.8156,1.8156,1.8188,1.8189,1.8147,1.8148,1.8148,0,1.8466,1.8462,1.8426,1.8418,1.8403,1.8389,1.8376,1.8344,1.8332,1.8302,1.8299,1.8278,1.8259,1.823,1.8201,1.8179,1.8168,1.818,1.8164,1.8173,1.8167,1.8167,1.8166,1.8184,1.8185,1.8185,1.8186,0,1.8502,1.8488,1.8473,1.8452,1.8438,1.842,1.84,1.8394,1.8357,1.8345,1.8326,1.8312,1.8283,1.8262,1.8236,1.8218,1.8195,1.8191,1.8191,1.8199,1.821,1.8203,1.8162,1.819,1.819,1.8189,1.8189,1.8189,1.8533,1.8528,1.8502,1.8485,1.8466,1.8448,1.844,1.8417,1.84,1.8375,1.8357,1.8339,1.8312,1.8274,1.8257,1.8241,1.8231,1.8232,1.8232,1.8232,1.8235,1.8214,1.8237,1.8236,1.8236,1.8236,1.8236,0,1.8567,1.8549,1.8533,1.8507,1.8493,1.8474,1.8451,1.844,1.8425,1.8402,1.8385,1.8362,1.8341,1.8311,1.8287,1.8281,1.8269,1.8275,1.8275,1.8271,1.8246,1.8248,1.8285,1.8285,1.8285,1.8285,1.8285,1.8285,1.8583,1.8573,1.8556,1.8536,1.8517,1.85,1.8488,1.8471,1.8452,1.8429,1.8412,1.8392,1.8366,1.834,1.832,1.8311,1.8303,1.8312,1.83,1.8277,1.8273,1.8269,1.827,1.8311,1.8311,1.8327,1.8327,1.8327]},{"header":{"parameterUnit":"m.s-1","parameterCategory":1,"la1":30.2991,"la2":30.254,"lo1":-89.0895,"lo2":-89.0444,"dy":0.0017,"dx":0.0017,"nx":28,"ny":28,"refTime":"2023-10-30T03:00:00:Z","depth":0,"parameterNumber":3,"parameterNumberName":"V-component_of_WINDS"},"data":[0,0,0,0,0,0,0,0,0,0,0,0,0,0,0,0,0,0,0,0,0,0,0,0,0,0,0,0,0,0,0,0,0,0,0,0,0,0,0,0,0,0,0,0,0,0,0,0,0,0,0,0,0,0,0,0,0,0,-5.6541,-5.654,0,-5.6446,-5.6445,-5.6444,-5.6418,-5.6418,-5.6419,-5.6419,-5.6309,-5.6305,-5.6302,0,0,0,0,0,0,0,0,0,0,0,0,0,-5.6685,-5.6683,-5.6541,-5.654,-5.6539,-5.6447,-5.6445,-5.6444,-5.6417,-5.6418,-5.6419,-5.642,-5.631,-5.6306,-5.6302,0,0,0,0,0,0,0,0,0,0,0,0,0,-5.661,-5.6682,-5.6541,-5.6515,-5.6511,-5.6447,-5.6445,-5.6444,-5.6417,-5.6418,-5.6419,-5.642,-5.6311,-5.6306,-5.6301,-5.6252,0,0,-5.6285,-5.6283,0,0,0,0,0,0,0,0,-5.6614,-5.6604,-5.652,-5.6516,-5.6513,-5.6445,-5.6456,-5.6379,-5.6417,-5.6453,-5.6419,-5.642,-5.6352,-5.6344,-5.6324,-5.6247,-5.6242,-5.6285,-5.6281,-5.6279,-5.6278,0,0,0,0,0,0,0,-5.6619,-5.6608,-5.6503,-5.6519,-5.6514,-5.6503,-5.6493,-5.6441,-5.6398,-5.645,-5.6448,-5.6437,-5.635,-5.6329,-5.6321,-5.624,-5.6285,-5.628,-5.6277,-5.6275,-5.6115,-5.6113,0,0,0,0,0,0,-5.6631,-5.6613,-5.6506,-5.65,-5.6567,-5.65,-5.6489,-5.6466,-5.6399,-5.639,-5.6437,-5.6437,-5.6337,-5.6327,-5.6317,-5.6253,-5.6279,-5.6274,-5.6271,-5.6116,-5.6114,-5.6113,0,0,0,0,0,0,-5.6634,-5.6622,-5.651,-5.6556,-5.6541,-5.6497,-5.647,-5.6463,-5.6442,-5.639,-5.638,-5.6424,-5.6338,-5.6324,-5.6269,-5.6249,-5.6272,-5.6267,-5.6117,-5.6115,-5.6114,-5.6127,0,0,0,0,0,0,-5.6638,-5.6623,-5.6607,-5.6556,-5.6539,-5.6467,-5.6469,-5.6461,-5.6435,-5.6433,-5.6375,-5.6365,-5.6337,-5.6277,-5.6263,-5.6242,-5.6263,-5.6118,-5.6116,-5.6114,-5.6128,-5.6125,-5.6124,0,0,0,0,0,-5.6644,-5.6612,-5.6607,-5.6594,-5.6519,-5.6467,-5.6456,-5.6428,-5.6433,-5.6415,-5.6381,-5.6367,-5.6254,-5.6271,-5.6256,-5.6233,-5.6119,-5.6117,-5.6114,-5.6128,-5.6126,-5.6124,0,0,0,0,0,0,-5.6658,-5.6605,-5.6598,-5.655,-5.6514,-5.6462,-5.6438,-5.6427,-5.6384,-5.6384,-5.6347,-5.6334,-5.628,-5.6251,-5.6271,-5.618,-5.6186,-5.618,-5.6202,-5.6199,-5.6197,-5.6204,-5.6259,0,0,0,0,0,-5.6656,-5.6623,-5.6576,-5.6538,-5.6521,-5.6483,-5.6459,-5.6441,-5.6399,-5.6382,-5.6345,-5.6301,-5.6255,-5.6225,-5.6181,-5.6124,-5.6108,-5.61,-5.6098,-5.6097,-5.6091,-5.6056,-5.6051,-5.6105,-5.6105,-5.6105,0,0,-5.665,-5.6618,-5.6598,-5.654,-5.651,-5.6471,-5.647,-5.6429,-5.6399,-5.6375,-5.6321,-5.6291,-5.624,-5.6183,-5.6156,-5.6157,-5.6074,-5.6094,-5.6093,-5.6088,-5.6053,-5.6048,-5.6043,-5.6103,-5.6103,-5.6104,0,0,-5.6621,-5.6594,-5.6559,-5.6529,-5.6484,-5.6459,-5.6451,-5.6401,-5.6382,-5.6328,-5.6309,-5.627,-5.6193,-5.6156,-5.6128,-5.6084,-5.6068,-5.607,-5.6058,-5.6024,-5.602,-5.6016,-5.5997,-5.5991,-5.6065,-5.6065,-5.6065,0,-5.6618,-5.6564,-5.654,-5.6502,-5.6475,-5.6456,-5.6417,-5.6388,-5.6329,-5.6309,-5.6312,-5.6215,-5.6178,-5.6112,-5.6101,-5.608,-5.6065,-5.6075,-5.6024,-5.6019,-5.6015,-5.5996,-5.599,-5.6065,-5.6065,-5.6065,-5.6065,0,-5.6562,-5.6524,-5.65,-5.6448,-5.6419,-5.638,-5.6346,-5.6319,-5.6303,-5.6276,-5.6219,-5.6176,-5.6121,-5.6104,-5.6087,-5.6034,-5.6036,-5.6032,-5.6036,-5.6011,-5.5992,-5.5985,-5.6066,-5.6066,-5.6066,-5.6066,0,0,-5.6537,-5.6474,-5.6465,-5.644,-5.639,-5.6358,-5.6316,-5.6267,-5.6243,-5.6202,-5.6163,-5.6099,-5.6095,-5.6062,-5.6041,-5.6011,-5.5975,-5.601,-5.6008,-5.6003,-5.591,-5.5912,-5.5904,-5.5966,-5.5965,-5.5964,-5.5913,0,-5.6499,-5.6429,-5.6406,-5.6346,-5.6309,-5.629,-5.6253,-5.6215,-5.6189,-5.615,-5.6118,-5.6073,-5.6073,-5.6052,-5.6023,-5.5987,-5.5956,-5.599,-5.5925,-5.5923,-5.5936,-5.5895,-5.5897,-5.5851,-5.5906,-5.5905,-5.5904,0,-5.6445,-5.6408,-5.6346,-5.6299,-5.6282,-5.625,-5.6202,-5.6167,-5.6121,-5.6104,-5.6068,-5.6049,-5.6,-5.6009,-5.5938,-5.5962,-5.5933,-5.5911,-5.5909,-5.5899,-5.591,-5.5881,-5.5837,-5.5829,-5.5894,-5.5894,-5.5895,0,-5.643,-5.6364,-5.6318,-5.6298,-5.6242,-5.622,-5.6195,-5.6151,-5.6123,-5.6079,-5.6059,-5.6009,-5.5981,-5.594,-5.5905,-5.5916,-5.5836,-5.5843,-5.5816,-5.5817,-5.5798,-5.5799,-5.5745,-5.5785,-5.5785,-5.5785,-5.5785,0,-5.6388,-5.635,-5.6311,-5.6282,-5.6237,-5.6209,-5.6163,-5.6137,-5.6098,-5.606,-5.604,-5.6003,-5.5962,-5.5918,-5.5891,-5.5834,-5.5822,-5.5802,-5.5795,-5.5803,-5.5805,-5.5782,-5.5783,-5.5783,-5.5783,-5.5784,-5.5784,0,-5.6363,-5.6336,-5.6284,-5.6237,-5.6224,-5.6192,-5.6149,-5.6118,-5.6091,-5.6043,-5.603,-5.5986,-5.5934,-5.5897,-5.5829,-5.581,-5.5748,-5.5742,-5.5764,-5.576,-5.5734,-5.5736,-5.5661,-5.5648,-5.5699,-5.5699,-5.5698,0,-5.6337,-5.6308,-5.6258,-5.6234,-5.621,-5.617,-5.6142,-5.6112,-5.6083,-5.6029,-5.6003,-5.5951,-5.5907,-5.5824,-5.5783,-5.573,-5.572,-5.5697,-5.5711,-5.572,-5.5716,-5.5717,-5.5712,-5.5694,-5.5694,-5.5694,-5.5693,0,-5.6293,-5.6281,-5.6244,-5.6201,-5.6169,-5.6132,-5.6095,-5.6075,-5.6038,-5.6004,-5.5954,-5.592,-5.5852,-5.5799,-5.5742,-5.571,-5.5693,-5.569,-5.568,-5.5686,-5.57,-5.5689,-5.5756,-5.5691,-5.5691,-5.5691,-5.5691,-5.5692,-5.6265,-5.6237,-5.6198,-5.6156,-5.6126,-5.6092,-5.606,-5.603,-5.5989,-5.5935,-5.5919,-5.5865,-5.5817,-5.574,-5.5708,-5.5661,-5.5662,-5.5648,-5.5644,-5.5641,-5.564,-5.571,-5.5651,-5.5651,-5.5651,-5.5651,-5.5651,0,-5.6217,-5.6192,-5.6154,-5.6104,-5.607,-5.6064,-5.6022,-5.5992,-5.5946,-5.5906,-5.5865,-5.5804,-5.5752,-5.5708,-5.5653,-5.5624,-5.5614,-5.561,-5.561,-5.5602,-5.5644,-5.5657,-5.5618,-5.5618,-5.5618,-5.5618,-5.5618,-5.5618,-5.6188,-5.614,-5.6124,-5.6059,-5.6032,-5.5983,-5.5959,-5.5925,-5.5893,-5.5829,-5.5787,-5.576,-5.5716,-5.5658,-5.5608,-5.5596,-5.5574,-5.5571,-5.5556,-5.5596,-5.5599,-5.5603,-5.5615,-5.5568,-5.5568,-5.5518,-5.5518,-5.5517]}]]